Hyannis, MA

10:48 PM EST on February 25, 2018 (GMT -0500)
Barnstable Municipal-Boardman-Polando Field

Weather History for KHYA - August, 2013

Change the Weather History Date:

Friday, August 30, 2013

  Actual Average Record
Temperature  
Mean Temperature 66 °F -  
Max Temperature 75 °F 75 °F 94 °F (1953)
Min Temperature 59 °F 60 °F 42 °F (1957)
Cooling Degree Days 1    
Growing Degree Days 16 (Base 50)    
Moisture  
Dew Point 61 °F    
Average Humidity 83    
Maximum Humidity 96    
Minimum Humidity 73    
Precipitation  
Precipitation 0.00 in - - ()
Sea Level Pressure  
Sea Level Pressure 29.93 in    
Wind  
Wind Speed 6 mph (West)    
Max Wind Speed 14 mph    
Max Gust Speed -    
Visibility 10 miles    
Events      
Averages and records for this station are not official NWS values.
T = Trace of Precipitation, MM = Missing Value Source: NWS Daily Summary

Daily Weather History Graph

Daily Weather History Graph

Search for Another Location

Airport or City:

Trip Planner

Search our weather history database for the weather conditions in past years. The results will help you decide how hot, cold, wet, or windy it might be!

Date:

Astronomy

Aug. 30, 2013 Rise Set
Actual Time 6:05 AM EDT 7:17 PM EDT
Civil Twilight 5:36 AM EDT 7:45 PM EDT
Nautical Twilight 5:02 AM EDT 8:20 PM EDT
Astronomical Twilight 4:26 AM EDT 8:56 PM EDT
Moon 12:38 AM EDT (8/30) 3:32 PM EDT (8/30)
Length of Visible Light 14h 09m
Length of Day
13h 12m
Waning Crescent, 29% of the Moon is Illuminated
Aug 30
Waning Crescent
Sep 5
New
Sep 12
First Quarter
Sep 19
Full
Sep 26
Last Quarter

Hourly Weather History & Observations

Time (EDT) Temp. Dew Point Humidity Pressure Visibility Wind Dir Wind Speed Gust Speed Precip Events Conditions
12:56 AM 59.0 °F 55.9 °F 90% 29.99 in 10.0 mi Calm Calm - N/A   Clear
1:29 AM 60.8 °F 57.2 °F 88% 29.99 in 10.0 mi North 4.6 mph - N/A   Mostly Cloudy
1:51 AM 62.6 °F 57.2 °F 82% 29.98 in 10.0 mi NNE 4.6 mph - N/A   Scattered Clouds
1:56 AM 62.1 °F 57.9 °F 86% 29.99 in 10.0 mi NNE 4.6 mph - N/A   Scattered Clouds
2:06 AM 62.6 °F 57.2 °F 82% 29.98 in 10.0 mi NNE 3.5 mph - N/A   Mostly Cloudy
2:56 AM 63.0 °F 57.9 °F 84% 29.97 in 10.0 mi NNE 8.1 mph - N/A   Overcast
3:56 AM 64.0 °F 57.9 °F 80% 29.97 in 10.0 mi North 9.2 mph - N/A   Overcast
4:56 AM 64.0 °F 57.9 °F 80% 29.96 in 10.0 mi NNW 5.8 mph - N/A   Overcast
5:56 AM 64.0 °F 57.9 °F 80% 29.96 in 10.0 mi NNW 4.6 mph - N/A   Overcast
6:56 AM 64.0 °F 59.0 °F 84% 29.98 in 10.0 mi Variable 3.5 mph - N/A   Overcast
7:56 AM 64.0 °F 59.0 °F 84% 29.97 in 10.0 mi West 5.8 mph - N/A   Overcast
8:56 AM 64.9 °F 57.9 °F 78% 29.97 in 10.0 mi NW 5.8 mph - N/A   Overcast
9:46 AM 66.2 °F 59.0 °F 78% 29.97 in 10.0 mi NW 13.8 mph - N/A   Overcast
9:56 AM 66.0 °F 59.0 °F 78% 29.97 in 10.0 mi West 8.1 mph - N/A   Overcast
10:27 AM 69.8 °F 60.8 °F 73% 29.96 in 10.0 mi West 8.1 mph - N/A   Overcast
10:43 AM 68.0 °F 60.8 °F 78% 29.96 in 10.0 mi WNW 5.8 mph - N/A   Overcast
10:56 AM 68.0 °F 60.1 °F 76% 29.96 in 10.0 mi West 6.9 mph - N/A   Overcast
11:56 AM 69.1 °F 61.0 °F 75% 29.94 in 10.0 mi West 6.9 mph - N/A   Overcast
12:56 PM 70.0 °F 62.1 °F 76% 29.92 in 10.0 mi SW 10.4 mph - N/A   Overcast
1:56 PM 72.0 °F 63.0 °F 73% 29.90 in 10.0 mi WSW 8.1 mph - N/A   Overcast
2:56 PM 73.0 °F 64.0 °F 73% 29.88 in 10.0 mi WSW 10.4 mph - N/A   Mostly Cloudy
3:56 PM 73.0 °F 66.0 °F 79% 29.87 in 10.0 mi SSW 10.4 mph - N/A   Mostly Cloudy
4:56 PM 73.0 °F 66.0 °F 79% 29.87 in 10.0 mi SSW 10.4 mph - N/A   Scattered Clouds
5:56 PM 73.0 °F 66.0 °F 79% 29.86 in 10.0 mi SW 11.5 mph - N/A   Clear
6:56 PM 70.0 °F 66.0 °F 87% 29.87 in 10.0 mi SW 8.1 mph - N/A   Clear
7:56 PM 68.0 °F 66.0 °F 93% 29.86 in 9.0 mi SW 9.2 mph - N/A   Clear
8:56 PM 68.0 °F 66.0 °F 93% 29.87 in 8.0 mi SW 6.9 mph - N/A   Clear
9:56 PM 68.0 °F 66.9 °F 96% 29.86 in 8.0 mi WSW 9.2 mph - N/A   Clear
10:36 PM 69.8 °F 66.2 °F 88% 29.86 in 7.0 mi SW 6.9 mph - N/A   Partly Cloudy
10:56 PM 68.0 °F 66.9 °F 96% 29.87 in 7.0 mi SW 5.8 mph - N/A   Mostly Cloudy
11:56 PM 69.1 °F 66.9 °F 93% 29.86 in 7.0 mi SW 11.5 mph - N/A   Overcast